Hourly Weather Mitry-Mory

Today, 3 December, Thursday

Time Temperature Precipitation Wind Pressure Humidity
00:00 +4°C° 0 mm 3 mps 751 mmHg 85%
01:00 +4°C° 0 mm 3 mps 750 mmHg 84%
02:00 +4°C° 0 mm 3 mps 749 mmHg 83%
03:00 +5°C° 0 mm 4 mps 748 mmHg 82%
04:00 +5°C° 0.1 mm 4 mps 748 mmHg 83%
05:00 +5°C° 0.1 mm 4 mps 747 mmHg 85%
06:00 +5°C° 0.1 mm 4 mps 746 mmHg 87%
07:00 +5°C° 0 mm 4 mps 745 mmHg 86%
08:00 +5°C° 0 mm 4 mps 745 mmHg 86%
09:00 +5°C° 0 mm 4 mps 744 mmHg 85%
10:00 +5°C° 0 mm 5 mps 743 mmHg 84%
11:00 +6°C° 0 mm 5 mps 742 mmHg 82%
12:00 +5°C° 0 mm 6 mps 741 mmHg 81%
13:00 +5°C° 0.4 mm 6 mps 739 mmHg 82%
14:00 +4°C° 0.4 mm 7 mps 738 mmHg 84%
15:00 +4°C° 0.4 mm 7 mps 736 mmHg 85%
16:00 +4°C° 0.8 mm 7 mps 735 mmHg 86%
17:00 +5°C° 0.8 mm 8 mps 734 mmHg 86%
18:00 +5°C° 0.8 mm 8 mps 733 mmHg 87%
19:00 +5°C° 1 mm 7 mps 732 mmHg 87%
20:00 +5°C° 1 mm 6 mps 731 mmHg 87%
21:00 +7°C° 1 mm 5 mps 730 mmHg 87%
22:00 +7°C° 0.2 mm 6 mps 729 mmHg 86%
23:00 +5°C° 0.2 mm 6 mps 728 mmHg 85%

Tomorrow, 4 December, Friday

Time Temperature Precipitation Wind Pressure Humidity
00:00 +5°C° 0.2 mm 6 mps 727 mmHg 84%
01:00 +5°C° 1.3 mm 7 mps 727 mmHg 81%
02:00 +5°C° 1.3 mm 8 mps 726 mmHg 78%
03:00 +5°C° 1.3 mm 9 mps 726 mmHg 75%
04:00 +5°C° 0.1 mm 8 mps 726 mmHg 75%
05:00 +4°C° 0.1 mm 8 mps 727 mmHg 75%
06:00 +4°C° 0.1 mm 8 mps 727 mmHg 75%
07:00 +4°C° 0 mm 7 mps 728 mmHg 76%
08:00 +3°C° 0 mm 7 mps 729 mmHg 76%
09:00 +3°C° 0 mm 7 mps 729 mmHg 77%
10:00 +3°C° 0 mm 7 mps 730 mmHg 74%
11:00 +4°C° 0 mm 6 mps 730 mmHg 71%
12:00 +4°C° 0 mm 6 mps 731 mmHg 68%
13:00 +5°C° 0 mm 5 mps 731 mmHg 66%
14:00 +5°C° 0 mm 4 mps 731 mmHg 65%
15:00 +5°C° 0 mm 3 mps 731 mmHg 63%
16:00 +4°C° 0 mm 3 mps 732 mmHg 66%
17:00 +4°C° 0 mm 3 mps 732 mmHg 69%
18:00 +3°C° 0 mm 3 mps 732 mmHg 71%
19:00 +3°C° 0 mm 3 mps 733 mmHg 73%
20:00 +2°C° 0 mm 3 mps 733 mmHg 75%
21:00 +3°C° 0 mm 2 mps 733 mmHg 77%
22:00 +3°C° 0 mm 2 mps 734 mmHg 78%
23:00 +2°C° 0 mm 2 mps 734 mmHg 80%

Day after tomorrow, 5 December, Saturday

Time Temperature Precipitation Wind Pressure Humidity
00:00 +2°C° 0 mm 2 mps 734 mmHg 81%
01:00 +2°C° 0 mm 2 mps 735 mmHg 83%
02:00 +1°C° 0 mm 2 mps 735 mmHg 85%
03:00 +1°C° 0 mm 2 mps 735 mmHg 87%
04:00 +1°C° 0 mm 2 mps 736 mmHg 88%
05:00 +1°C° 0 mm 2 mps 736 mmHg 89%
06:00 -1°C° 0 mm 2 mps 736 mmHg 90%
07:00 0°C° 0 mm 3 mps 737 mmHg 87%
08:00 0°C° 0 mm 3 mps 737 mmHg 85%
09:00 -1°C° 0 mm 4 mps 737 mmHg 83%
10:00 +1°C° 0 mm 4 mps 737 mmHg 77%
11:00 +3°C° 0 mm 4 mps 737 mmHg 71%
12:00 +4°C° 0 mm 4 mps 737 mmHg 65%
13:00 +4°C° 0 mm 4 mps 736 mmHg 66%
14:00 +4°C° 0 mm 4 mps 736 mmHg 68%
15:00 +4°C° 0 mm 4 mps 736 mmHg 69%
16:00 +3°C° 0 mm 4 mps 736 mmHg 72%
17:00 +3°C° 0 mm 4 mps 736 mmHg 74%
18:00 +1°C° 0 mm 5 mps 736 mmHg 76%
19:00 +1°C° 0 mm 4 mps 736 mmHg 80%
20:00 +1°C° 0 mm 4 mps 737 mmHg 83%
21:00 0°C° 0 mm 4 mps 737 mmHg 86%
22:00 0°C° 0 mm 4 mps 737 mmHg 88%
23:00 0°C° 0 mm 4 mps 737 mmHg 89%

6 December, Sunday

Time Temperature Precipitation Wind Pressure Humidity
00:00 0°C° 0 mm 4 mps 737 mmHg 90%
01:00 0°C° 0.1 mm 4 mps 737 mmHg 90%
02:00 +1°C° 0.1 mm 3 mps 737 mmHg 90%
03:00 +1°C° 0.1 mm 3 mps 737 mmHg 90%
04:00 +1°C° 0.2 mm 3 mps 737 mmHg 90%
05:00 +2°C° 0.2 mm 3 mps 737 mmHg 91%
06:00 +2°C° 0.2 mm 3 mps 737 mmHg 92%
07:00 +2°C° 0.1 mm 3 mps 738 mmHg 92%
08:00 +2°C° 0.1 mm 3 mps 738 mmHg 92%
09:00 +2°C° 0.1 mm 3 mps 738 mmHg 92%
10:00 +3°C° 0.1 mm 2 mps 739 mmHg 92%
11:00 +3°C° 0.1 mm 2 mps 739 mmHg 92%
12:00 +4°C° 0.1 mm 1 mps 739 mmHg 93%
13:00 +4°C° 0.2 mm 1 mps 739 mmHg 93%
14:00 +4°C° 0.2 mm 1 mps 739 mmHg 93%
15:00 +4°C° 0.2 mm 1 mps 739 mmHg 93%
16:00 +4°C° 0.1 mm 1 mps 740 mmHg 93%
17:00 +4°C° 0.1 mm 1 mps 740 mmHg 93%
18:00 +4°C° 0.1 mm 1 mps 741 mmHg 92%
19:00 +4°C° 0.1 mm 1 mps 741 mmHg 92%
20:00 +4°C° 0.1 mm 1 mps 742 mmHg 92%
21:00 +3°C° 0.1 mm 2 mps 742 mmHg 92%
22:00 +3°C° 0 mm 2 mps 743 mmHg 92%
23:00 +3°C° 0 mm 2 mps 743 mmHg 91%

7 December, Monday

Time Temperature Precipitation Wind Pressure Humidity
00:00 +2°C° 0 mm 2 mps 743 mmHg 90%
01:00 +2°C° 0 mm 2 mps 743 mmHg 89%
02:00 +2°C° 0 mm 2 mps 743 mmHg 89%
03:00 +2°C° 0 mm 2 mps 744 mmHg 88%
04:00 +2°C° 0 mm 2 mps 744 mmHg 86%
05:00 +2°C° 0 mm 2 mps 744 mmHg 85%
06:00 +2°C° 0 mm 2 mps 744 mmHg 84%
07:00 +1°C° 0 mm 3 mps 744 mmHg 84%
08:00 +2°C° 0 mm 3 mps 744 mmHg 85%
09:00 +2°C° 0 mm 3 mps 745 mmHg 85%
10:00 +1°C° 0.1 mm 4 mps 744 mmHg 87%
11:00 +1°C° 0.1 mm 4 mps 744 mmHg 89%
12:00 +1°C° 0.1 mm 4 mps 744 mmHg 92%
13:00 +1°C° 0.2 mm 4 mps 744 mmHg 91%
14:00 +3°C° 0.2 mm 3 mps 744 mmHg 91%
15:00 +3°C° 0.2 mm 3 mps 744 mmHg 90%
16:00 +3°C° 0.1 mm 3 mps 744 mmHg 90%
17:00 +4°C° 0.1 mm 2 mps 744 mmHg 91%
18:00 +4°C° 0.1 mm 2 mps 744 mmHg 91%
19:00 +3°C° 0 mm 3 mps 744 mmHg 91%
20:00 +3°C° 0 mm 3 mps 744 mmHg 91%
21:00 +3°C° 0 mm 3 mps 744 mmHg 91%
22:00 +3°C° 0 mm 4 mps 744 mmHg 91%
23:00 +4°C° 0 mm 4 mps 743 mmHg 90%

8 December, Tuesday

Time Temperature Precipitation Wind Pressure Humidity
00:00 +4°C° 0 mm 4 mps 743 mmHg 89%
01:00 +3°C° 0 mm 4 mps 743 mmHg 89%
02:00 +3°C° 0 mm 4 mps 742 mmHg 88%
03:00 +3°C° 0 mm 4 mps 742 mmHg 87%
04:00 +3°C° 0 mm 4 mps 741 mmHg 86%
05:00 +1°C° 0 mm 4 mps 741 mmHg 84%
06:00 +1°C° 0 mm 5 mps 741 mmHg 82%
07:00 +1°C° 0 mm 5 mps 740 mmHg 82%
08:00 +1°C° 0 mm 5 mps 740 mmHg 82%
09:00 +2°C° 0 mm 6 mps 740 mmHg 82%
10:00 +2°C° 0.1 mm 5 mps 739 mmHg 82%
11:00 +2°C° 0.1 mm 5 mps 739 mmHg 82%
12:00 +3°C° 0.1 mm 5 mps 739 mmHg 82%
13:00 +3°C° 0.2 mm 5 mps 739 mmHg 84%
14:00 +4°C° 0.2 mm 4 mps 739 mmHg 85%
15:00 +5°C° 0.2 mm 4 mps 738 mmHg 87%
16:00 +5°C° 0.3 mm 3 mps 739 mmHg 89%
17:00 +5°C° 0.3 mm 3 mps 739 mmHg 92%
18:00 +6°C° 0.3 mm 2 mps 739 mmHg 94%
19:00 +5°C° 0 mm 2 mps 739 mmHg 94%
20:00 +5°C° 0 mm 2 mps 739 mmHg 95%
21:00 +5°C° 0 mm 1 mps 740 mmHg 95%
22:00 +5°C° 0 mm 1 mps 740 mmHg 95%
23:00 +5°C° 0 mm 1 mps 740 mmHg 95%
Show more